Location: *
(45.5224°N, 122.7471°W)
Time: 02:47:57
(UTC+00:00)

Cosmos 2195 Rocket - Pass Details

Date: 09 April 2020
Orbit: 949 x 993 km, 82.9° (Epoch: 24 May)

Event Time Altitude Azimuth Distance (km) Brightness Sun altitude
Rises 12:34:05 0° 193° (SSW) 3,627 7.1 -11.0°
Reaches altitude 10° 12:36:34 10° 195° (SSW) 2,691 6.5 -10.6°
Maximum altitude 12:42:43 72° 280° (W) 1,022 4.5 -9.6°
Drops below altitude 10° 12:49:00 10° 5° (N) 2,740 7.2 -8.6°
Sets 12:51:33 0° 7° (N) 3,698 7.9 -8.2°
